Location: Aranbee
(34.0885°N, 118.2342°W)
Time: 09:49:02
(UTC+00:00)

Courier 1B Rocket - Pass Details

Date: 30 November 2020
Orbit: 920 x 1202 km, 28.2° (Epoch: 27 January)

Event Time Altitude Azimuth Distance (km) Brightness Sun altitude
Rises 09:51:15 0° 196° (SSW) 3,977 - -59.0°
Reaches altitude 10° 09:56:33 10° 165° (SSE) 3,075 - -58.0°
Maximum altitude 09:58:50 11° 147° (SSE) 2,982 - -57.5°
Drops below altitude 10° 10:01:08 10° 130° (SE) 3,110 - -57.0°
Exits shadow 10:03:37 - 114° (ESE) 3,468 8.2 -56.5°
Sets 10:06:33 0° 100° (E) 4,094 8.7 -55.9°
